When you browse on this site, cookies collect data to enhance your experience and personalize the content and advertising you see.
Visit our Privacy Policy to learn more. By continuing to use the site, you agree to this use of cookies and data.
  • In Hungary
  • List of Countries
  • For 7 days
  • Water Temperature
  • Satellite Maps
  • Weather Map
  • News
  • Weather Widgets
  • user-avatar
    Login

    Hourly Weather Zeya

    Today, 21 January, Monday

    Time Temperature Precipitation Wind Pressure Humidity
    00:00 -25°C° 0 mm 1 mps 727 mmHg 78%
    01:00 -25°C° 0 mm 1 mps 727 mmHg 78%
    02:00 -25°C° 0 mm 1 mps 726 mmHg 78%
    03:00 -25°C° 0 mm 1 mps 726 mmHg 79%
    04:00 -25°C° 0 mm 1 mps 726 mmHg 80%
    05:00 -25°C° 0 mm 1 mps 726 mmHg 81%
    06:00 -25°C° 0 mm 1 mps 726 mmHg 82%
    07:00 -25°C° 0 mm 1 mps 727 mmHg 83%
    08:00 -25°C° 0 mm 1 mps 727 mmHg 84%
    09:00 -23°C° 0 mm 1 mps 727 mmHg 82%
    10:00 -21°C° 0 mm 0 mps 726 mmHg 80%
    11:00 -18°C° 0 mm 0 mps 726 mmHg 78%
    12:00 -18°C° 0 mm 0 mps 726 mmHg 79%
    13:00 -17°C° 0 mm 1 mps 726 mmHg 81%
    14:00 -17°C° 0 mm 1 mps 726 mmHg 82%
    15:00 -18°C° 0 mm 0 mps 725 mmHg 86%
    16:00 -20°C° 0 mm 0 mps 725 mmHg 91%
    17:00 -22°C° 0 mm 0 mps 725 mmHg 95%
    18:00 -22°C° 0 mm 0 mps 725 mmHg 95%
    19:00 -23°C° 0 mm 0 mps 725 mmHg 95%
    20:00 -23°C° 0 mm 0 mps 725 mmHg 95%
    21:00 -23°C° 0 mm 0 mps 724 mmHg 95%
    22:00 -23°C° 0 mm 0 mps 724 mmHg 95%
    23:00 -23°C° 0 mm 0 mps 724 mmHg 95%

    Tomorrow, 22 January, Tuesday

    Time Temperature Precipitation Wind Pressure Humidity
    00:00 -23°C° 0 mm 0 mps 724 mmHg 95%
    01:00 -23°C° 0 mm 0 mps 724 mmHg 95%
    02:00 -23°C° 0 mm 0 mps 724 mmHg 94%
    03:00 -23°C° 0 mm 0 mps 725 mmHg 94%
    04:00 -23°C° 0 mm 1 mps 725 mmHg 94%
    05:00 -23°C° 0 mm 1 mps 725 mmHg 94%
    06:00 -23°C° 0 mm 1 mps 725 mmHg 94%
    07:00 -23°C° 0 mm 1 mps 725 mmHg 94%
    08:00 -23°C° 0 mm 1 mps 726 mmHg 94%
    09:00 -22°C° 0 mm 1 mps 726 mmHg 90%
    10:00 -20°C° 0 mm 1 mps 726 mmHg 87%
    11:00 -18°C° 0 mm 1 mps 726 mmHg 84%
    12:00 -17°C° 0 mm 1 mps 726 mmHg 84%
    13:00 -17°C° 0 mm 1 mps 726 mmHg 84%
    14:00 -16°C° 0 mm 1 mps 726 mmHg 83%
    15:00 -17°C° 0 mm 1 mps 726 mmHg 86%
    16:00 -19°C° 0 mm 1 mps 726 mmHg 89%
    17:00 -20°C° 0 mm 1 mps 727 mmHg 92%
    18:00 -20°C° 0 mm 1 mps 727 mmHg 92%
    19:00 -21°C° 0 mm 1 mps 727 mmHg 91%
    20:00 -21°C° 0 mm 1 mps 727 mmHg 91%
    21:00 -24°C° 0 mm 2 mps 727 mmHg 90%
    22:00 -23°C° 0 mm 2 mps 727 mmHg 89%
    23:00 -23°C° 0 mm 2 mps 728 mmHg 88%

    Day after tomorrow, 23 January, Wednesday

    Time Temperature Precipitation Wind Pressure Humidity
    00:00 -23°C° 0 mm 2 mps 728 mmHg 88%
    01:00 -21°C° 0 mm 2 mps 728 mmHg 87%
    02:00 -21°C° 0 mm 2 mps 729 mmHg 87%
    03:00 -21°C° 0 mm 2 mps 729 mmHg 87%
    04:00 -21°C° 0 mm 2 mps 729 mmHg 87%
    05:00 -21°C° 0 mm 2 mps 730 mmHg 86%
    06:00 -21°C° 0 mm 2 mps 730 mmHg 86%
    07:00 -21°C° 0 mm 2 mps 731 mmHg 85%
    08:00 -20°C° 0 mm 2 mps 731 mmHg 85%
    09:00 -19°C° 0 mm 2 mps 732 mmHg 82%
    10:00 -17°C° 0 mm 2 mps 732 mmHg 79%
    11:00 -15°C° 0 mm 2 mps 732 mmHg 76%
    12:00 -15°C° 0 mm 2 mps 733 mmHg 76%
    13:00 -14°C° 0 mm 2 mps 733 mmHg 77%
    14:00 -14°C° 0 mm 2 mps 733 mmHg 77%
    15:00 -16°C° 0 mm 2 mps 733 mmHg 80%
    16:00 -17°C° 0 mm 2 mps 734 mmHg 83%
    17:00 -19°C° 0 mm 2 mps 734 mmHg 86%
    18:00 -20°C° 0 mm 2 mps 734 mmHg 86%
    19:00 -20°C° 0 mm 2 mps 734 mmHg 87%
    20:00 -20°C° 0 mm 2 mps 735 mmHg 87%
    21:00 -21°C° 0 mm 2 mps 735 mmHg 87%
    22:00 -19°C° 0 mm 1 mps 735 mmHg 88%
    23:00 -19°C° 0 mm 1 mps 735 mmHg 88%

    24 January, Thursday

    Time Temperature Precipitation Wind Pressure Humidity
    00:00 -19°C° 0 mm 1 mps 736 mmHg 88%
    01:00 -19°C° 0 mm 1 mps 736 mmHg 87%
    02:00 -19°C° 0 mm 1 mps 736 mmHg 87%
    03:00 -21°C° 0 mm 2 mps 736 mmHg 88%
    04:00 -21°C° 0 mm 2 mps 736 mmHg 88%
    05:00 -21°C° 0 mm 2 mps 737 mmHg 88%
    06:00 -23°C° 0 mm 2 mps 737 mmHg 88%
    07:00 -23°C° 0 mm 2 mps 737 mmHg 89%
    08:00 -23°C° 0 mm 2 mps 737 mmHg 89%
    09:00 -18°C° 0 mm 1 mps 738 mmHg 86%
    10:00 -16°C° 0 mm 1 mps 738 mmHg 83%
    11:00 -14°C° 0 mm 1 mps 738 mmHg 80%
    12:00 -13°C° 0 mm 1 mps 738 mmHg 80%
    13:00 -13°C° 0 mm 1 mps 738 mmHg 80%
    14:00 -12°C° 0 mm 1 mps 738 mmHg 81%
    15:00 -14°C° 0 mm 1 mps 738 mmHg 83%
    16:00 -17°C° 0 mm 2 mps 738 mmHg 85%
    17:00 -19°C° 0 mm 2 mps 738 mmHg 88%
    18:00 -20°C° 0 mm 2 mps 738 mmHg 87%
    19:00 -20°C° 0 mm 2 mps 739 mmHg 87%
    20:00 -21°C° 0 mm 2 mps 739 mmHg 87%
    21:00 -21°C° 0 mm 2 mps 739 mmHg 87%
    22:00 -21°C° 0 mm 2 mps 739 mmHg 86%
    23:00 -21°C° 0 mm 2 mps 739 mmHg 86%

    25 January, Friday

    Time Temperature Precipitation Wind Pressure Humidity
    00:00 -21°C° 0 mm 2 mps 739 mmHg 86%
    01:00 -23°C° 0 mm 2 mps 739 mmHg 86%
    02:00 -23°C° 0 mm 2 mps 739 mmHg 85%
    03:00 -23°C° 0 mm 2 mps 739 mmHg 85%
    04:00 -23°C° 0 mm 2 mps 739 mmHg 85%
    05:00 -23°C° 0 mm 2 mps 739 mmHg 84%
    06:00 -23°C° 0 mm 2 mps 739 mmHg 84%
    07:00 -23°C° 0 mm 2 mps 739 mmHg 84%
    08:00 -24°C° 0 mm 2 mps 739 mmHg 83%
    09:00 -21°C° 0 mm 2 mps 739 mmHg 80%
    10:00 -19°C° 0 mm 2 mps 739 mmHg 76%
    11:00 -17°C° 0 mm 2 mps 739 mmHg 73%
    12:00 -16°C° 0 mm 2 mps 739 mmHg 73%
    13:00 -15°C° 0 mm 2 mps 739 mmHg 73%
    14:00 -14°C° 0 mm 2 mps 739 mmHg 73%
    15:00 -16°C° 0 mm 2 mps 739 mmHg 77%
    16:00 -18°C° 0 mm 2 mps 739 mmHg 81%
    17:00 -20°C° 0 mm 2 mps 739 mmHg 85%
    18:00 -20°C° 0 mm 2 mps 739 mmHg 85%
    19:00 -21°C° 0 mm 2 mps 738 mmHg 86%
    20:00 -21°C° 0 mm 2 mps 738 mmHg 87%
    21:00 -21°C° 0 mm 2 mps 738 mmHg 87%
    22:00 -21°C° 0 mm 2 mps 738 mmHg 86%
    23:00 -21°C° 0 mm 2 mps 738 mmHg 86%

    26 January, Saturday

    Time Temperature Precipitation Wind Pressure Humidity
    00:00 -19°C° 0 mm 1 mps 738 mmHg 86%
    01:00 -19°C° 0 mm 1 mps 738 mmHg 86%
    02:00 -20°C° 0 mm 1 mps 738 mmHg 86%
    03:00 -20°C° 0 mm 1 mps 738 mmHg 86%
    04:00 -20°C° 0 mm 1 mps 738 mmHg 86%
    05:00 -20°C° 0 mm 1 mps 738 mmHg 86%
    06:00 -19°C° 0 mm 1 mps 738 mmHg 86%
    07:00 -19°C° 0 mm 1 mps 738 mmHg 86%
    08:00 -19°C° 0 mm 1 mps 738 mmHg 86%
    09:00 -17°C° 0 mm 1 mps 737 mmHg 81%
    10:00 -15°C° 0 mm 1 mps 737 mmHg 77%
    11:00 -12°C° 0 mm 1 mps 737 mmHg 73%
    12:00 -12°C° 0 mm 1 mps 736 mmHg 74%
    13:00 -11°C° 0 mm 1 mps 736 mmHg 76%
    14:00 -11°C° 0 mm 1 mps 736 mmHg 77%
    15:00 -12°C° 0 mm 1 mps 735 mmHg 80%
    16:00 -14°C° 0 mm 1 mps 735 mmHg 83%
    17:00 -15°C° 0 mm 1 mps 735 mmHg 86%
    18:00 -16°C° 0 mm 1 mps 735 mmHg 85%
    19:00 -16°C° 0 mm 1 mps 735 mmHg 84%
    20:00 -18°C° 0 mm 2 mps 735 mmHg 84%
    21:00 -18°C° 0 mm 2 mps 735 mmHg 83%
    22:00 -17°C° 0 mm 2 mps 735 mmHg 82%
    23:00 -17°C° 0 mm 2 mps 735 mmHg 81%
    Show more